Year,Month,Day,Hour,Minute,Value (Times are PST for windgust in km/hr)
2013,09,30,00,00,20.90
2013,09,30,00,01,11.30
2013,09,30,00,02,11.30
2013,09,30,00,03,11.30
2013,09,30,00,04,9.60
2013,09,30,00,05,11.30
2013,09,30,00,06,8.10
2013,09,30,00,07,11.30
2013,09,30,00,08,11.30
2013,09,30,00,09,20.90
2013,09,30,00,10,16.10
2013,09,30,00,11,17.70
2013,09,30,00,12,9.60
2013,09,30,00,13,11.30
2013,09,30,00,14,19.30
2013,09,30,00,15,19.30
2013,09,30,00,16,9.60
2013,09,30,00,17,6.40
2013,09,30,00,18,14.50
2013,09,30,00,19,29.00
2013,09,30,00,20,22.50
2013,09,30,00,21,9.60
2013,09,30,00,22,24.20
2013,09,30,00,23,24.20
2013,09,30,00,24,19.30
2013,09,30,00,25,25.70
2013,09,30,00,26,19.30
2013,09,30,00,27,32.20
2013,09,30,00,28,29.00
2013,09,30,00,29,30.60
2013,09,30,00,30,16.10
2013,09,30,00,31,17.70
2013,09,30,00,32,27.40
2013,09,30,00,33,20.90
2013,09,30,00,34,19.30
2013,09,30,00,35,20.90
2013,09,30,00,36,25.70
2013,09,30,00,37,16.10
2013,09,30,00,38,27.40
2013,09,30,00,39,17.70
2013,09,30,00,40,20.90
2013,09,30,00,41,29.00
2013,09,30,00,42,29.00
2013,09,30,00,43,24.20
2013,09,30,00,44,30.60
2013,09,30,00,45,19.30
2013,09,30,00,46,30.60
2013,09,30,00,47,19.30
2013,09,30,00,48,20.90
2013,09,30,00,49,24.20
2013,09,30,00,50,29.00
2013,09,30,00,51,22.50
2013,09,30,00,52,30.60
2013,09,30,00,53,24.20
2013,09,30,00,54,17.70
2013,09,30,00,55,24.20
2013,09,30,00,56,24.20
2013,09,30,00,57,22.50
2013,09,30,00,58,20.90
2013,09,30,00,59,22.50
2013,09,30,01,00,16.10
2013,09,30,01,01,30.60
2013,09,30,01,02,25.70
2013,09,30,01,03,33.80
2013,09,30,01,04,46.70
2013,09,30,01,05,29.00
2013,09,30,01,06,16.10
2013,09,30,01,07,27.40
2013,09,30,01,08,24.20
2013,09,30,01,09,19.30
2013,09,30,01,10,14.50
2013,09,30,01,11,17.70
2013,09,30,01,12,19.30
2013,09,30,01,13,32.20
2013,09,30,01,14,33.80
2013,09,30,01,15,27.40
2013,09,30,01,16,25.70
2013,09,30,01,17,24.20
2013,09,30,01,18,33.80
2013,09,30,01,19,20.90
2013,09,30,01,20,24.20
2013,09,30,01,21,24.20
2013,09,30,01,22,29.00
2013,09,30,01,23,22.50
2013,09,30,01,24,25.70
2013,09,30,01,25,24.20
2013,09,30,01,26,19.30
2013,09,30,01,27,27.40
2013,09,30,01,28,40.20
2013,09,30,01,29,22.50
2013,09,30,01,30,16.10
2013,09,30,01,31,17.70
2013,09,30,01,32,22.50
2013,09,30,01,33,27.40
2013,09,30,01,34,24.20
2013,09,30,01,35,22.50
2013,09,30,01,36,20.90
2013,09,30,01,37,25.70
2013,09,30,01,38,14.50
2013,09,30,01,39,19.30
2013,09,30,01,40,16.10
2013,09,30,01,41,22.50
2013,09,30,01,42,24.20
2013,09,30,01,43,14.50
2013,09,30,01,44,20.90
2013,09,30,01,45,24.20
2013,09,30,01,46,17.70
2013,09,30,01,47,27.40
2013,09,30,01,48,22.50
2013,09,30,01,49,20.90
2013,09,30,01,50,16.10
2013,09,30,01,51,16.10
2013,09,30,01,52,19.30
2013,09,30,01,53,14.50
2013,09,30,01,54,19.30
2013,09,30,01,55,17.70
2013,09,30,01,56,14.50
2013,09,30,01,57,22.50
2013,09,30,01,58,20.90
2013,09,30,01,59,20.90
2013,09,30,02,00,19.30
2013,09,30,02,01,20.90
2013,09,30,02,02,19.30
2013,09,30,02,03,17.70
2013,09,30,02,04,24.20
2013,09,30,02,05,20.90
2013,09,30,02,06,29.00
2013,09,30,02,07,24.20
2013,09,30,02,08,25.70
2013,09,30,02,09,29.00
2013,09,30,02,10,17.70
2013,09,30,02,11,12.90
2013,09,30,02,12,19.30
2013,09,30,02,13,19.30
2013,09,30,02,14,16.10
2013,09,30,02,15,19.30
2013,09,30,02,16,16.10
2013,09,30,02,17,16.10
2013,09,30,02,18,35.40
2013,09,30,02,19,19.30
2013,09,30,02,20,27.40
2013,09,30,02,21,24.20
2013,09,30,02,22,24.20
2013,09,30,02,23,20.90
2013,09,30,02,24,14.50
2013,09,30,02,25,9.60
2013,09,30,02,26,22.50
2013,09,30,02,27,29.00
2013,09,30,02,28,29.00
2013,09,30,02,29,32.20
2013,09,30,02,30,9.60
2013,09,30,02,31,16.10
2013,09,30,02,32,17.70
2013,09,30,02,33,19.30
2013,09,30,02,34,17.70
2013,09,30,02,35,20.90
2013,09,30,02,36,14.50
2013,09,30,02,37,24.20
2013,09,30,02,38,19.30
2013,09,30,02,39,16.10
2013,09,30,02,40,24.20
2013,09,30,02,41,20.90
2013,09,30,02,42,17.70
2013,09,30,02,43,16.10
2013,09,30,02,44,20.90
2013,09,30,02,45,22.50
2013,09,30,02,46,17.70
2013,09,30,02,47,8.10
2013,09,30,02,48,12.90
2013,09,30,02,49,16.10
2013,09,30,02,50,20.90
2013,09,30,02,51,11.30
2013,09,30,02,52,4.80
2013,09,30,02,53,11.30
2013,09,30,02,54,8.10
2013,09,30,02,55,22.50
2013,09,30,02,56,20.90
2013,09,30,02,57,14.50
2013,09,30,02,58,20.90
2013,09,30,02,59,14.50
2013,09,30,03,00,19.30
2013,09,30,03,01,22.50
2013,09,30,03,02,25.70
2013,09,30,03,03,17.70
2013,09,30,03,04,30.60
2013,09,30,03,05,30.60
2013,09,30,03,06,24.20
2013,09,30,03,07,35.40
2013,09,30,03,08,27.40
2013,09,30,03,09,27.40
2013,09,30,03,10,33.80
2013,09,30,03,11,32.20
2013,09,30,03,12,17.70
2013,09,30,03,13,29.00
2013,09,30,03,14,25.70
2013,09,30,03,15,19.30
2013,09,30,03,16,30.60
2013,09,30,03,17,17.70
2013,09,30,03,18,24.20
2013,09,30,03,19,19.30
2013,09,30,03,20,8.10
2013,09,30,03,21,22.50
2013,09,30,03,22,9.60
2013,09,30,03,23,16.10
2013,09,30,03,24,14.50
2013,09,30,03,25,17.70
2013,09,30,03,26,17.70
2013,09,30,03,27,19.30
2013,09,30,03,28,25.70
2013,09,30,03,29,19.30
2013,09,30,03,30,20.90
2013,09,30,03,31,16.10
2013,09,30,03,32,25.70
2013,09,30,03,33,16.10
2013,09,30,03,34,11.30
2013,09,30,03,35,9.60
2013,09,30,03,36,14.50
2013,09,30,03,37,16.10
2013,09,30,03,38,19.30
2013,09,30,03,39,9.60
2013,09,30,03,40,8.10
2013,09,30,03,41,8.10
2013,09,30,03,42,14.50
2013,09,30,03,43,8.10
2013,09,30,03,44,17.70
2013,09,30,03,45,8.10
2013,09,30,03,46,6.40
2013,09,30,03,47,16.10
2013,09,30,03,48,6.40
2013,09,30,03,49,8.10
2013,09,30,03,50,9.60
2013,09,30,03,51,16.10
2013,09,30,03,52,14.50
2013,09,30,03,53,17.70
2013,09,30,03,54,11.30
2013,09,30,03,55,9.60
2013,09,30,03,56,16.10
2013,09,30,03,57,16.10
2013,09,30,03,58,11.30
2013,09,30,03,59,4.80
2013,09,30,04,00,8.10
2013,09,30,04,01,16.10
2013,09,30,04,02,4.80
2013,09,30,04,03,16.10
2013,09,30,04,04,17.70
2013,09,30,04,05,16.10
2013,09,30,04,06,11.30
2013,09,30,04,07,16.10
2013,09,30,04,08,11.30
2013,09,30,04,09,14.50
2013,09,30,04,10,20.90
2013,09,30,04,11,24.20
2013,09,30,04,12,20.90
2013,09,30,04,13,20.90
2013,09,30,04,14,14.50
2013,09,30,04,15,19.30
2013,09,30,04,16,14.50
2013,09,30,04,17,11.30
2013,09,30,04,18,14.50
2013,09,30,04,19,8.10
2013,09,30,04,20,11.30
2013,09,30,04,21,9.60
2013,09,30,04,22,11.30
2013,09,30,04,23,17.70
2013,09,30,04,24,20.90
2013,09,30,04,25,17.70
2013,09,30,04,26,17.70
2013,09,30,04,27,14.50
2013,09,30,04,28,19.30
2013,09,30,04,29,24.20
2013,09,30,04,30,17.70
2013,09,30,04,31,19.30
2013,09,30,04,32,16.10
2013,09,30,04,33,6.40
2013,09,30,04,34,17.70
2013,09,30,04,35,32.20
2013,09,30,04,36,29.00
2013,09,30,04,37,29.00
2013,09,30,04,38,25.70
2013,09,30,04,39,27.40
2013,09,30,04,40,35.40
2013,09,30,04,41,29.00
2013,09,30,04,42,25.70
2013,09,30,04,43,17.70
2013,09,30,04,44,17.70
2013,09,30,04,45,8.10
2013,09,30,04,46,16.10
2013,09,30,04,47,11.30
2013,09,30,04,48,16.10
2013,09,30,04,49,22.50
2013,09,30,04,50,32.20
2013,09,30,04,51,27.40
2013,09,30,04,52,32.20
2013,09,30,04,53,35.40
2013,09,30,04,54,20.90
2013,09,30,04,55,27.40
2013,09,30,04,56,25.70
2013,09,30,04,57,33.80
2013,09,30,04,58,24.20
2013,09,30,04,59,33.80
2013,09,30,05,00,20.90
2013,09,30,05,01,14.50
2013,09,30,05,02,22.50
2013,09,30,05,03,20.90
2013,09,30,05,04,11.30
2013,09,30,05,05,20.90
2013,09,30,05,06,16.10
2013,09,30,05,07,17.70
2013,09,30,05,08,20.90
2013,09,30,05,09,17.70
2013,09,30,05,10,16.10
2013,09,30,05,11,16.10
2013,09,30,05,12,16.10
2013,09,30,05,13,20.90
2013,09,30,05,14,24.20
2013,09,30,05,15,20.90
2013,09,30,05,16,17.70
2013,09,30,05,17,24.20
2013,09,30,05,18,11.30
2013,09,30,05,19,11.30
2013,09,30,05,20,16.10
2013,09,30,05,21,19.30
2013,09,30,05,22,17.70
2013,09,30,05,23,20.90
2013,09,30,05,24,17.70
2013,09,30,05,25,20.90
2013,09,30,05,26,20.90
2013,09,30,05,27,20.90
2013,09,30,05,28,29.00
2013,09,30,05,29,19.30
2013,09,30,05,30,22.50
2013,09,30,05,31,27.40
2013,09,30,05,32,17.70
2013,09,30,05,33,16.10
2013,09,30,05,34,11.30
2013,09,30,05,35,9.60
2013,09,30,05,36,17.70
2013,09,30,05,37,19.30
2013,09,30,05,38,29.00
2013,09,30,05,39,22.50
2013,09,30,05,40,37.00
2013,09,30,05,41,22.50
2013,09,30,05,42,16.10
2013,09,30,05,43,17.70
2013,09,30,05,44,19.30
2013,09,30,05,45,9.60
2013,09,30,05,46,14.50
2013,09,30,05,47,19.30
2013,09,30,05,48,6.40
2013,09,30,05,49,17.70
2013,09,30,05,50,16.10
2013,09,30,05,51,8.10
2013,09,30,05,52,6.40
2013,09,30,05,53,6.40
2013,09,30,05,54,4.80
2013,09,30,05,55,6.40
2013,09,30,05,56,8.10
2013,09,30,05,57,4.80
2013,09,30,05,58,4.80
2013,09,30,05,59,3.20
2013,09,30,06,01,3.20
2013,09,30,06,02,4.80
2013,09,30,06,03,4.80
2013,09,30,06,04,3.20
2013,09,30,06,05,6.40
2013,09,30,06,06,8.10
2013,09,30,06,07,11.30
2013,09,30,06,08,6.40
2013,09,30,06,09,6.40
2013,09,30,06,10,8.10
2013,09,30,06,11,16.10
2013,09,30,06,12,11.30
2013,09,30,06,13,8.10
2013,09,30,06,14,11.30
2013,09,30,06,15,4.80
2013,09,30,06,16,1.60
2013,09,30,06,17,6.40
2013,09,30,06,18,1.60
2013,09,30,06,21,6.40
2013,09,30,06,22,3.20
2013,09,30,06,23,3.20
2013,09,30,06,24,3.20
2013,09,30,06,28,1.60
2013,09,30,06,29,4.80
2013,09,30,06,30,1.60
2013,09,30,06,38,3.20
2013,09,30,06,43,3.20
2013,09,30,06,49,4.80
2013,09,30,06,50,6.40
2013,09,30,06,51,6.40
2013,09,30,06,52,4.80
2013,09,30,06,53,4.80
2013,09,30,06,54,4.80
2013,09,30,06,55,6.40
2013,09,30,06,56,4.80
2013,09,30,06,57,4.80
2013,09,30,06,58,4.80
2013,09,30,06,59,4.80
2013,09,30,07,00,4.80
2013,09,30,07,02,4.80
2013,09,30,07,03,4.80
2013,09,30,07,04,4.80
2013,09,30,07,05,4.80
2013,09,30,07,06,3.20
2013,09,30,07,07,4.80
2013,09,30,07,08,6.40
2013,09,30,07,09,4.80
2013,09,30,07,10,4.80
2013,09,30,07,11,4.80
2013,09,30,07,12,4.80
2013,09,30,07,13,4.80
2013,09,30,07,14,8.10
2013,09,30,07,15,14.50
2013,09,30,07,16,9.60
2013,09,30,07,17,14.50
2013,09,30,07,18,9.60
2013,09,30,07,19,8.10
2013,09,30,07,20,8.10
2013,09,30,07,21,11.30
2013,09,30,07,22,9.60
2013,09,30,07,23,14.50
2013,09,30,07,24,9.60
2013,09,30,07,25,9.60
2013,09,30,07,26,6.40
2013,09,30,07,27,11.30
2013,09,30,07,28,16.10
2013,09,30,07,29,12.90
2013,09,30,07,30,8.10
2013,09,30,07,31,11.30
2013,09,30,07,32,14.50
2013,09,30,07,33,16.10
2013,09,30,07,34,16.10
2013,09,30,07,35,16.10
2013,09,30,07,36,16.10
2013,09,30,07,37,16.10
2013,09,30,07,38,14.50
2013,09,30,07,39,19.30
2013,09,30,07,40,20.90
2013,09,30,07,41,17.70
2013,09,30,07,42,17.70
2013,09,30,07,43,12.90
2013,09,30,07,44,14.50
2013,09,30,07,45,17.70
2013,09,30,07,46,11.30
2013,09,30,07,47,11.30
2013,09,30,07,48,14.50
2013,09,30,07,49,14.50
2013,09,30,07,50,11.30
2013,09,30,07,51,16.10
2013,09,30,07,52,9.60
2013,09,30,07,53,11.30
2013,09,30,07,54,14.50
2013,09,30,07,55,20.90
2013,09,30,07,56,16.10
2013,09,30,07,57,17.70
2013,09,30,07,58,16.10
2013,09,30,07,59,16.10
2013,09,30,08,00,17.70
2013,09,30,08,01,19.30
2013,09,30,08,02,19.30
2013,09,30,08,03,19.30
2013,09,30,08,04,16.10
2013,09,30,08,05,17.70
2013,09,30,08,06,16.10
2013,09,30,08,07,20.90
2013,09,30,08,08,22.50
2013,09,30,08,09,22.50
2013,09,30,08,10,22.50
2013,09,30,08,11,12.90
2013,09,30,08,12,19.30
2013,09,30,08,13,16.10
2013,09,30,08,14,14.50
2013,09,30,08,15,16.10
2013,09,30,08,16,16.10
2013,09,30,08,17,16.10
2013,09,30,08,18,14.50
2013,09,30,08,19,11.30
2013,09,30,08,20,8.10
2013,09,30,08,21,6.40
2013,09,30,08,22,6.40
2013,09,30,08,23,17.70
2013,09,30,08,24,11.30
2013,09,30,08,25,8.10
2013,09,30,08,26,4.80
2013,09,30,08,27,8.10
2013,09,30,08,28,8.10
2013,09,30,08,29,4.80
2013,09,30,08,30,4.80
2013,09,30,08,31,8.10
2013,09,30,08,32,8.10
2013,09,30,08,33,8.10
2013,09,30,08,34,9.60
2013,09,30,08,35,6.40
2013,09,30,08,36,8.10
2013,09,30,08,37,4.80
2013,09,30,08,38,3.20
2013,09,30,08,40,3.20
2013,09,30,08,41,1.60
2013,09,30,08,44,3.20
2013,09,30,08,45,6.40
2013,09,30,08,46,6.40
2013,09,30,08,47,1.60
2013,09,30,08,50,1.60
2013,09,30,08,51,3.20
2013,09,30,08,52,3.20
2013,09,30,08,53,3.20
2013,09,30,08,54,4.80
2013,09,30,08,55,3.20
2013,09,30,08,56,3.20
2013,09,30,08,59,1.60
2013,09,30,09,00,4.80
2013,09,30,09,01,4.80
2013,09,30,09,02,4.80
2013,09,30,09,03,4.80
2013,09,30,09,04,4.80
2013,09,30,09,05,6.40
2013,09,30,09,06,6.40
2013,09,30,09,07,9.60
2013,09,30,09,08,8.10
2013,09,30,09,09,9.60
2013,09,30,09,10,16.10
2013,09,30,09,11,14.50
2013,09,30,09,12,8.10
2013,09,30,09,13,11.30
2013,09,30,09,14,9.60
2013,09,30,09,15,11.30
2013,09,30,09,16,8.10
2013,09,30,09,17,11.30
2013,09,30,09,18,6.40
2013,09,30,09,19,4.80
2013,09,30,09,20,6.40
2013,09,30,09,21,8.10
2013,09,30,09,22,6.40
2013,09,30,09,23,4.80
2013,09,30,09,24,3.20
2013,09,30,09,25,1.60
2013,09,30,09,26,4.80
2013,09,30,09,27,3.20
2013,09,30,09,28,3.20
2013,09,30,09,29,1.60
2013,09,30,09,33,3.20
2013,09,30,09,34,4.80
2013,09,30,09,35,8.10
2013,09,30,09,36,9.60
2013,09,30,09,37,9.60
2013,09,30,09,38,11.30
2013,09,30,09,39,11.30
2013,09,30,09,40,6.40
2013,09,30,09,41,14.50
2013,09,30,09,42,4.80
2013,09,30,09,43,9.60
2013,09,30,09,44,6.40
2013,09,30,09,45,11.30
2013,09,30,09,46,9.60
2013,09,30,09,47,8.10
2013,09,30,09,48,6.40
2013,09,30,09,49,14.50
2013,09,30,09,50,11.30
2013,09,30,09,51,6.40
2013,09,30,09,52,8.10
2013,09,30,09,53,6.40
2013,09,30,09,54,6.40
2013,09,30,09,55,4.80
2013,09,30,09,56,12.90
2013,09,30,09,57,11.30
2013,09,30,09,58,4.80
2013,09,30,10,00,4.80
2013,09,30,10,01,6.40
2013,09,30,10,02,9.60
2013,09,30,10,03,4.80
2013,09,30,10,04,6.40
2013,09,30,10,05,4.80
2013,09,30,10,06,8.10
2013,09,30,10,07,6.40
2013,09,30,10,08,8.10
2013,09,30,10,09,8.10
2013,09,30,10,10,4.80
2013,09,30,10,11,6.40
2013,09,30,10,12,6.40
2013,09,30,10,13,8.10
2013,09,30,10,14,8.10
2013,09,30,10,15,8.10
2013,09,30,10,16,11.30
2013,09,30,10,17,9.60
2013,09,30,10,18,9.60
2013,09,30,10,19,11.30
2013,09,30,10,20,9.60
2013,09,30,10,21,9.60
2013,09,30,10,22,8.10
2013,09,30,10,23,6.40
2013,09,30,10,24,6.40
2013,09,30,10,25,11.30
2013,09,30,10,26,8.10
2013,09,30,10,27,17.70
2013,09,30,10,28,20.90
2013,09,30,10,29,19.30
2013,09,30,10,30,17.70
2013,09,30,10,31,19.30
2013,09,30,10,32,16.10
2013,09,30,10,33,20.90
2013,09,30,10,34,19.30
2013,09,30,10,35,16.10
2013,09,30,10,36,20.90
2013,09,30,10,37,19.30
2013,09,30,10,38,17.70
2013,09,30,10,39,22.50
2013,09,30,10,40,16.10
2013,09,30,10,41,20.90
2013,09,30,10,42,17.70
2013,09,30,10,43,12.90
2013,09,30,10,44,19.30
2013,09,30,10,45,24.20
2013,09,30,10,46,11.30
2013,09,30,10,47,16.10
2013,09,30,10,48,16.10
2013,09,30,10,49,11.30
2013,09,30,10,50,11.30
2013,09,30,10,51,16.10
2013,09,30,10,52,11.30
2013,09,30,10,53,9.60
2013,09,30,10,54,9.60
2013,09,30,10,55,8.10
2013,09,30,10,56,6.40
2013,09,30,10,57,8.10
2013,09,30,10,58,14.50
2013,09,30,10,59,12.90
2013,09,30,11,00,17.70
2013,09,30,11,01,16.10
2013,09,30,11,02,16.10
2013,09,30,11,03,8.10
2013,09,30,11,04,11.30
2013,09,30,11,05,14.50
2013,09,30,11,06,14.50
2013,09,30,11,07,6.40
2013,09,30,11,08,9.60
2013,09,30,11,09,8.10
2013,09,30,11,10,8.10
2013,09,30,11,11,3.20
2013,09,30,11,13,9.60
2013,09,30,11,14,8.10
2013,09,30,11,15,8.10
2013,09,30,11,16,11.30
2013,09,30,11,17,14.50
2013,09,30,11,18,14.50
2013,09,30,11,19,12.90
2013,09,30,11,20,11.30
2013,09,30,11,21,9.60
2013,09,30,11,22,11.30
2013,09,30,11,23,14.50
2013,09,30,11,24,16.10
2013,09,30,11,25,6.40
2013,09,30,11,26,1.60
2013,09,30,11,27,3.20
2013,09,30,11,28,3.20
2013,09,30,11,29,4.80
2013,09,30,11,30,4.80
2013,09,30,11,31,4.80
2013,09,30,11,32,4.80
2013,09,30,11,33,4.80
2013,09,30,11,34,4.80
2013,09,30,11,35,4.80
2013,09,30,11,36,4.80
2013,09,30,11,37,8.10
2013,09,30,11,38,9.60
2013,09,30,11,39,11.30
2013,09,30,11,40,12.90
2013,09,30,11,41,12.90
2013,09,30,11,42,9.60
2013,09,30,11,43,9.60
2013,09,30,11,44,9.60
2013,09,30,11,45,9.60
2013,09,30,11,46,11.30
2013,09,30,11,47,16.10
2013,09,30,11,48,8.10
2013,09,30,11,49,8.10
2013,09,30,11,50,6.40
2013,09,30,11,51,8.10
2013,09,30,11,52,8.10
2013,09,30,11,53,11.30
2013,09,30,11,54,6.40
2013,09,30,11,55,8.10
2013,09,30,11,56,4.80
2013,09,30,11,57,3.20
2013,09,30,11,58,1.60
2013,09,30,11,59,3.20
2013,09,30,12,01,4.80
2013,09,30,12,02,6.40
2013,09,30,12,03,8.10
2013,09,30,12,04,6.40
2013,09,30,12,05,6.40
2013,09,30,12,06,6.40
2013,09,30,12,07,6.40
2013,09,30,12,08,6.40
2013,09,30,12,09,9.60
2013,09,30,12,10,8.10
2013,09,30,12,11,4.80
2013,09,30,12,12,9.60
2013,09,30,12,13,11.30
2013,09,30,12,14,16.10
2013,09,30,12,15,16.10
2013,09,30,12,16,9.60
2013,09,30,12,17,3.20
2013,09,30,12,18,6.40
2013,09,30,12,19,14.50
2013,09,30,12,20,17.70
2013,09,30,12,21,25.70
2013,09,30,12,22,17.70
2013,09,30,12,23,16.10
2013,09,30,12,24,16.10
2013,09,30,12,25,19.30
2013,09,30,12,26,14.50
2013,09,30,12,27,6.40
2013,09,30,12,28,16.10
2013,09,30,12,29,9.60
2013,09,30,12,30,11.30
2013,09,30,12,31,8.10
2013,09,30,12,32,6.40
2013,09,30,12,33,8.10
2013,09,30,12,34,11.30
2013,09,30,12,35,6.40
2013,09,30,12,36,8.10
2013,09,30,12,37,8.10
2013,09,30,12,38,6.40
2013,09,30,12,39,11.30
2013,09,30,12,40,8.10
2013,09,30,12,41,6.40
2013,09,30,12,42,4.80
2013,09,30,12,43,8.10
2013,09,30,12,44,4.80
2013,09,30,12,45,6.40
2013,09,30,12,46,8.10
2013,09,30,12,47,6.40
2013,09,30,12,48,6.40
2013,09,30,12,49,4.80
2013,09,30,12,50,4.80
2013,09,30,12,51,8.10
2013,09,30,12,52,8.10
2013,09,30,12,53,11.30
2013,09,30,12,54,11.30
2013,09,30,12,55,14.50
2013,09,30,12,56,11.30
2013,09,30,12,57,9.60
2013,09,30,12,58,12.90
2013,09,30,12,59,11.30
2013,09,30,13,00,14.50
2013,09,30,13,01,11.30
2013,09,30,13,02,11.30
2013,09,30,13,03,14.50
2013,09,30,13,04,11.30
2013,09,30,13,05,11.30
2013,09,30,13,06,11.30
2013,09,30,13,07,11.30
2013,09,30,13,08,9.60
2013,09,30,13,09,9.60
2013,09,30,13,10,8.10
2013,09,30,13,11,8.10
2013,09,30,13,12,9.60
2013,09,30,13,13,8.10
2013,09,30,13,14,6.40
2013,09,30,13,15,9.60
2013,09,30,13,16,11.30
2013,09,30,13,17,11.30
2013,09,30,13,18,11.30
2013,09,30,13,19,11.30
2013,09,30,13,20,9.60
2013,09,30,13,21,11.30
2013,09,30,13,22,9.60
2013,09,30,13,23,9.60
2013,09,30,13,24,6.40
2013,09,30,13,25,3.20
2013,09,30,13,26,3.20
2013,09,30,13,27,4.80
2013,09,30,13,28,8.10
2013,09,30,13,29,9.60
2013,09,30,13,30,12.90
2013,09,30,13,31,6.40
2013,09,30,13,32,3.20
2013,09,30,13,34,8.10
2013,09,30,13,35,6.40
2013,09,30,13,36,4.80
2013,09,30,13,37,11.30
2013,09,30,13,38,20.90
2013,09,30,13,39,25.70
2013,09,30,13,40,24.20
2013,09,30,13,41,19.30
2013,09,30,13,42,17.70
2013,09,30,13,43,11.30
2013,09,30,13,44,9.60
2013,09,30,13,45,17.70
2013,09,30,13,46,11.30
2013,09,30,13,47,8.10
2013,09,30,13,48,8.10
2013,09,30,13,49,8.10
2013,09,30,13,50,11.30
2013,09,30,13,51,9.60
2013,09,30,13,52,3.20
2013,09,30,13,53,9.60
2013,09,30,13,54,8.10
2013,09,30,13,55,11.30
2013,09,30,13,56,16.10
2013,09,30,13,57,12.90
2013,09,30,13,58,11.30
2013,09,30,13,59,17.70
2013,09,30,14,00,11.30
2013,09,30,14,01,17.70
2013,09,30,14,02,4.80
2013,09,30,14,03,6.40
2013,09,30,14,04,6.40
2013,09,30,14,05,6.40
2013,09,30,14,06,11.30
2013,09,30,14,07,9.60
2013,09,30,14,08,8.10
2013,09,30,14,09,11.30
2013,09,30,14,10,11.30
2013,09,30,14,11,9.60
2013,09,30,14,12,17.70
2013,09,30,14,13,17.70
2013,09,30,14,14,9.60
2013,09,30,14,15,9.60
2013,09,30,14,16,14.50
2013,09,30,14,17,4.80
2013,09,30,14,18,4.80
2013,09,30,14,19,8.10
2013,09,30,14,20,6.40
2013,09,30,14,21,4.80
2013,09,30,14,22,8.10
2013,09,30,14,23,11.30
2013,09,30,14,24,8.10
2013,09,30,14,25,9.60
2013,09,30,14,26,20.90
2013,09,30,14,27,14.50
2013,09,30,14,28,9.60
2013,09,30,14,29,17.70
2013,09,30,14,30,14.50
2013,09,30,14,31,9.60
2013,09,30,14,32,6.40
2013,09,30,14,33,3.20
2013,09,30,14,34,11.30
2013,09,30,14,35,20.90
2013,09,30,14,36,22.50
2013,09,30,14,37,19.30
2013,09,30,14,38,19.30
2013,09,30,14,39,9.60
2013,09,30,14,40,20.90
2013,09,30,14,41,14.50
2013,09,30,14,42,22.50
2013,09,30,14,43,14.50
2013,09,30,14,44,11.30
2013,09,30,14,45,9.60
2013,09,30,14,46,9.60
2013,09,30,14,47,16.10
2013,09,30,14,48,24.20
2013,09,30,14,49,14.50
2013,09,30,14,50,6.40
2013,09,30,14,51,9.60
2013,09,30,14,52,11.30
2013,09,30,14,53,9.60
2013,09,30,14,54,4.80
2013,09,30,14,55,8.10
2013,09,30,14,56,14.50
2013,09,30,14,57,14.50
2013,09,30,14,58,22.50
2013,09,30,14,59,9.60
2013,09,30,15,00,9.60
2013,09,30,15,01,17.70
2013,09,30,15,02,16.10
2013,09,30,15,03,16.10
2013,09,30,15,04,17.70
2013,09,30,15,05,20.90
2013,09,30,15,06,14.50
2013,09,30,15,07,19.30
2013,09,30,15,08,9.60
2013,09,30,15,09,8.10
2013,09,30,15,10,9.60
2013,09,30,15,11,9.60
2013,09,30,15,12,6.40
2013,09,30,15,13,6.40
2013,09,30,15,14,6.40
2013,09,30,15,15,4.80
2013,09,30,15,16,4.80
2013,09,30,15,17,8.10
2013,09,30,15,18,6.40
2013,09,30,15,19,9.60
2013,09,30,15,20,4.80
2013,09,30,15,21,11.30
2013,09,30,15,22,16.10
2013,09,30,15,23,8.10
2013,09,30,15,24,11.30
2013,09,30,15,25,6.40
2013,09,30,15,26,14.50
2013,09,30,15,27,16.10
2013,09,30,15,28,6.40
2013,09,30,15,29,14.50
2013,09,30,15,30,6.40
2013,09,30,15,31,4.80
2013,09,30,15,32,8.10
2013,09,30,15,33,9.60
2013,09,30,15,34,6.40
2013,09,30,15,35,11.30
2013,09,30,15,36,6.40
2013,09,30,15,37,8.10
2013,09,30,15,38,6.40
2013,09,30,15,39,11.30
2013,09,30,15,40,9.60
2013,09,30,15,41,9.60
2013,09,30,15,42,4.80
2013,09,30,15,43,9.60
2013,09,30,15,44,4.80
2013,09,30,15,45,6.40
2013,09,30,15,46,9.60
2013,09,30,15,47,6.40
2013,09,30,15,48,6.40
2013,09,30,15,49,8.10
2013,09,30,15,50,6.40
2013,09,30,15,51,6.40
2013,09,30,15,52,6.40
2013,09,30,15,53,9.60
2013,09,30,15,54,6.40
2013,09,30,15,55,3.20
2013,09,30,15,56,8.10
2013,09,30,15,57,4.80
2013,09,30,15,58,8.10
2013,09,30,15,59,6.40
2013,09,30,16,00,8.10
2013,09,30,16,01,4.80
2013,09,30,16,02,3.20
2013,09,30,16,03,1.60
2013,09,30,16,04,8.10
2013,09,30,16,05,11.30
2013,09,30,16,06,4.80
2013,09,30,16,07,1.60
2013,09,30,16,08,3.20
2013,09,30,16,09,11.30
2013,09,30,16,10,14.50
2013,09,30,16,11,8.10
2013,09,30,16,12,3.20
2013,09,30,16,13,11.30
2013,09,30,16,14,9.60
2013,09,30,16,15,9.60
2013,09,30,16,16,11.30
2013,09,30,16,17,6.40
2013,09,30,16,18,4.80
2013,09,30,16,19,8.10
2013,09,30,16,20,4.80
2013,09,30,16,21,11.30
2013,09,30,16,22,8.10
2013,09,30,16,23,9.60
2013,09,30,16,24,4.80
2013,09,30,16,25,11.30
2013,09,30,16,26,9.60
2013,09,30,16,27,4.80
2013,09,30,16,28,12.90
2013,09,30,16,29,9.60
2013,09,30,16,30,6.40
2013,09,30,16,31,8.10
2013,09,30,16,32,9.60
2013,09,30,16,33,3.20
2013,09,30,16,34,8.10
2013,09,30,16,35,9.60
2013,09,30,16,36,6.40
2013,09,30,16,37,11.30
2013,09,30,16,38,9.60
2013,09,30,16,39,9.60
2013,09,30,16,40,14.50
2013,09,30,16,41,16.10
2013,09,30,16,42,9.60
2013,09,30,16,43,14.50
2013,09,30,16,44,17.70
2013,09,30,16,45,17.70
2013,09,30,16,46,9.60
2013,09,30,16,47,14.50
2013,09,30,16,48,22.50
2013,09,30,16,49,19.30
2013,09,30,16,50,9.60
2013,09,30,16,51,9.60
2013,09,30,16,52,14.50
2013,09,30,16,53,14.50
2013,09,30,16,54,8.10
2013,09,30,16,55,6.40
2013,09,30,16,56,8.10
2013,09,30,16,57,12.90
2013,09,30,16,58,8.10
2013,09,30,16,59,14.50
2013,09,30,17,00,22.50
2013,09,30,17,01,11.30
2013,09,30,17,02,16.10
2013,09,30,17,03,14.50
2013,09,30,17,04,20.90
2013,09,30,17,05,20.90
2013,09,30,17,06,20.90
2013,09,30,17,07,24.20
2013,09,30,17,08,19.30
2013,09,30,17,09,22.50
2013,09,30,17,10,20.90
2013,09,30,17,11,24.20
2013,09,30,17,12,37.00
2013,09,30,17,13,38.60
2013,09,30,17,14,27.40
2013,09,30,17,15,25.70
2013,09,30,17,16,29.00
2013,09,30,17,17,22.50
2013,09,30,17,18,19.30
2013,09,30,17,19,17.70
2013,09,30,17,20,20.90
2013,09,30,17,21,27.40
2013,09,30,17,22,19.30
2013,09,30,17,23,29.00
2013,09,30,17,24,27.40
2013,09,30,17,25,16.10
2013,09,30,17,26,17.70
2013,09,30,17,27,20.90
2013,09,30,17,28,17.70
2013,09,30,17,29,11.30
2013,09,30,17,30,20.90
2013,09,30,17,31,16.10
2013,09,30,17,32,9.60
2013,09,30,17,33,11.30
2013,09,30,17,34,20.90
2013,09,30,17,35,4.80
2013,09,30,17,36,11.30
2013,09,30,17,37,16.10
2013,09,30,17,38,8.10
2013,09,30,17,39,11.30
2013,09,30,17,40,11.30
2013,09,30,17,41,19.30
2013,09,30,17,42,19.30
2013,09,30,17,43,9.60
2013,09,30,17,44,4.80
2013,09,30,17,45,4.80
2013,09,30,17,46,11.30
2013,09,30,17,47,4.80
2013,09,30,17,48,4.80
2013,09,30,17,49,3.20
2013,09,30,17,50,4.80
2013,09,30,17,51,4.80
2013,09,30,17,52,6.40
2013,09,30,17,54,4.80
2013,09,30,17,55,11.30
2013,09,30,17,56,9.60
2013,09,30,17,57,3.20
2013,09,30,17,58,8.10
2013,09,30,18,00,3.20
2013,09,30,18,01,4.80
2013,09,30,18,02,3.20
2013,09,30,18,03,3.20
2013,09,30,18,04,3.20
2013,09,30,18,09,4.80
2013,09,30,18,10,3.20
2013,09,30,18,12,3.20
2013,09,30,18,13,4.80
2013,09,30,18,14,1.60
2013,09,30,18,15,8.10
2013,09,30,18,16,6.40
2013,09,30,18,17,8.10
2013,09,30,18,19,4.80
2013,09,30,18,20,4.80
2013,09,30,18,21,8.10
2013,09,30,18,22,22.50
2013,09,30,18,23,16.10
2013,09,30,18,24,24.20